[[{"header":{"parameterUnit":"m.s-1","parameterCategory":1,"la1":30.2991,"la2":30.254,"lo1":-89.0895,"lo2":-89.0444,"dy":0.0017,"dx":0.0017,"nx":28,"ny":28,"refTime":"2025-03-14T03:00:00:Z","depth":0,"parameterNumber":2,"parameterNumberName":"U-component_of_WINDS"},"data":[0,0,0,0,0,0,0,0,0,0,0,0,0,0,0,0,0,0,0,0,0,0,0,0,0,0,0,0,0,0,0,0,0,0,0,0,0,0,0,0,0,0,0,0,0,0,0,0,0,0,0,0,0,0,0,0,0,0,-2.1661,-2.1662,0,-2.1769,-2.177,-2.1771,-2.1824,-2.1824,-2.1824,-2.1824,-2.193,-2.1933,-2.1935,0,0,0,0,0,0,0,0,0,0,0,0,0,-2.1497,-2.15,-2.1661,-2.1663,-2.1664,-2.1769,-2.177,-2.1771,-2.1824,-2.1824,-2.1824,-2.1824,-2.1929,-2.1932,-2.1936,0,0,0,0,0,0,0,0,0,0,0,0,0,-2.1583,-2.1501,-2.1661,-2.1703,-2.1708,-2.1768,-2.177,-2.1772,-2.1824,-2.1824,-2.1824,-2.1824,-2.1928,-2.1932,-2.1936,-2.1962,0,0,-2.1949,-2.1951,0,0,0,0,0,0,0,0,-2.1578,-2.1589,-2.1695,-2.17,-2.1706,-2.1783,-2.1751,-2.1835,-2.1824,-2.178,-2.1824,-2.1824,-2.1881,-2.1889,-2.1909,-2.1967,-2.1971,-2.1949,-2.1952,-2.1954,-2.1955,0,0,0,0,0,0,0,-2.1572,-2.1584,-2.1704,-2.1697,-2.1703,-2.1715,-2.1727,-2.1767,-2.1829,-2.1784,-2.1788,-2.18,-2.1883,-2.1905,-2.1912,-2.1973,-2.1949,-2.1953,-2.1956,-2.1957,-2.2057,-2.2057,0,0,0,0,0,0,-2.156,-2.1579,-2.17,-2.1707,-2.1641,-2.1718,-2.1731,-2.1758,-2.1828,-2.1839,-2.18,-2.1802,-2.1897,-2.1907,-2.1916,-2.1951,-2.1954,-2.1958,-2.196,-2.2057,-2.2057,-2.2057,0,0,0,0,0,0,-2.1556,-2.157,-2.1696,-2.1644,-2.1661,-2.1721,-2.175,-2.176,-2.1782,-2.1841,-2.1851,-2.181,-2.1898,-2.191,-2.195,-2.1955,-2.196,-2.1963,-2.2057,-2.2057,-2.2057,-2.202,0,0,0,0,0,0,-2.1551,-2.1568,-2.158,-2.1644,-2.1664,-2.173,-2.175,-2.1762,-2.1789,-2.1793,-2.1854,-2.1864,-2.1899,-2.1944,-2.1954,-2.1961,-2.1967,-2.2057,-2.2057,-2.2057,-2.2021,-2.2019,-2.2017,0,0,0,0,0,-2.1545,-2.1565,-2.158,-2.1595,-2.168,-2.173,-2.1741,-2.1783,-2.1789,-2.1801,-2.1839,-2.1862,-2.1952,-2.1947,-2.196,-2.1968,-2.2056,-2.2057,-2.2057,-2.2022,-2.202,-2.2017,0,0,0,0,0,0,-2.1498,-2.1574,-2.1592,-2.1633,-2.1675,-2.1739,-2.1755,-2.1778,-2.1818,-2.182,-2.1868,-2.1881,-2.1917,-2.1946,-2.1939,-2.1996,-2.2007,-2.2009,-2.1976,-2.1974,-2.1972,-2.1964,-2.197,0,0,0,0,0,-2.1493,-2.1529,-2.1593,-2.1623,-2.1643,-2.1695,-2.1719,-2.1747,-2.1791,-2.1809,-2.185,-2.1891,-2.1929,-2.1953,-2.1991,-2.2026,-2.2039,-2.2037,-2.2035,-2.2033,-2.2035,-2.2055,-2.2054,-2.2058,-2.2058,-2.2058,0,0,-2.1482,-2.1528,-2.1547,-2.1614,-2.165,-2.1685,-2.171,-2.1746,-2.1772,-2.1814,-2.1855,-2.1886,-2.1936,-2.1973,-2.1992,-2.1999,-2.2037,-2.2033,-2.2031,-2.2034,-2.2055,-2.2055,-2.2054,-2.2058,-2.2058,-2.2058,0,0,-2.148,-2.1519,-2.1548,-2.1583,-2.1637,-2.1672,-2.1679,-2.1739,-2.1762,-2.1804,-2.1837,-2.1867,-2.1932,-2.1965,-2.1991,-2.2001,-2.2023,-2.2011,-2.2001,-2.202,-2.202,-2.202,-2.2023,-2.2024,-2.2013,-2.2013,-2.2013,0,-2.146,-2.1515,-2.156,-2.1594,-2.1622,-2.1663,-2.1692,-2.1724,-2.1787,-2.1805,-2.1812,-2.1893,-2.1929,-2.1975,-2.1977,-2.1996,-2.2005,-2.2005,-2.2016,-2.2017,-2.2017,-2.2021,-2.2022,-2.2011,-2.2011,-2.2012,-2.2012,0,-2.1487,-2.1525,-2.1542,-2.1603,-2.1633,-2.1664,-2.1712,-2.1736,-2.1761,-2.1795,-2.1836,-2.1881,-2.1929,-2.1941,-2.1966,-2.199,-2.1993,-2.2007,-2.2019,-2.2015,-2.2019,-2.2021,-2.2009,-2.2009,-2.201,-2.201,0,0,-2.146,-2.1545,-2.1551,-2.1579,-2.1641,-2.167,-2.1702,-2.175,-2.177,-2.1812,-2.184,-2.1893,-2.1907,-2.1935,-2.1964,-2.198,-2.1985,-2.1993,-2.1994,-2.199,-2.2014,-2.2003,-2.2004,-2.2,-2.2,-2.2,-2.201,0,-2.1467,-2.153,-2.157,-2.1615,-2.165,-2.1689,-2.1717,-2.1757,-2.1789,-2.1822,-2.1856,-2.1893,-2.1908,-2.1926,-2.1944,-2.198,-2.199,-2.198,-2.2025,-2.2026,-2.2012,-2.2006,-2.1995,-2.2002,-2.2012,-2.2012,-2.2012,0,-2.1484,-2.1526,-2.1575,-2.1633,-2.1649,-2.1674,-2.1721,-2.1752,-2.1798,-2.182,-2.1851,-2.188,-2.1915,-2.1923,-2.1971,-2.1963,-2.1983,-2.2004,-2.2005,-2.2011,-2.2019,-2.2012,-2.2005,-2.2006,-2.2015,-2.2015,-2.2015,0,-2.146,-2.1528,-2.1566,-2.1589,-2.1657,-2.1674,-2.1703,-2.1749,-2.1775,-2.1815,-2.1832,-2.1875,-2.1898,-2.193,-2.1969,-2.1972,-2.2013,-2.2024,-2.2031,-2.203,-2.2038,-2.2037,-2.2035,-2.2051,-2.2051,-2.2051,-2.2051,0,-2.1464,-2.1492,-2.1556,-2.158,-2.1612,-2.1657,-2.1688,-2.172,-2.176,-2.179,-2.1825,-2.1851,-2.1901,-2.1933,-2.1964,-2.1998,-2.2009,-2.2026,-2.2034,-2.2024,-2.2021,-2.2038,-2.2039,-2.2051,-2.2051,-2.2051,-2.2051,0,-2.1442,-2.1486,-2.1531,-2.1592,-2.1607,-2.1629,-2.168,-2.1704,-2.1737,-2.1774,-2.1785,-2.1836,-2.1876,-2.1918,-2.1971,-2.1992,-2.2025,-2.2036,-2.201,-2.2014,-2.2019,-2.2018,-2.2027,-2.203,-2.2043,-2.2043,-2.2043,0,-2.1442,-2.1465,-2.1529,-2.1552,-2.158,-2.1616,-2.1643,-2.1687,-2.1714,-2.1767,-2.1784,-2.1826,-2.1863,-2.1924,-2.1965,-2.2006,-2.2018,-2.2019,-2.2025,-2.2013,-2.2018,-2.2017,-2.2019,-2.2017,-2.2016,-2.2016,-2.2016,0,-2.1438,-2.1458,-2.1496,-2.1541,-2.1573,-2.161,-2.1649,-2.1665,-2.1717,-2.1744,-2.1786,-2.1814,-2.1869,-2.191,-2.1956,-2.1984,-2.2008,-2.2014,-2.2017,-2.2007,-2.1991,-2.2,-2.2005,-2.2013,-2.2014,-2.2014,-2.2014,-2.2014,-2.1427,-2.1449,-2.1498,-2.1538,-2.1572,-2.1607,-2.1632,-2.1669,-2.1705,-2.1754,-2.1777,-2.1818,-2.1862,-2.1927,-2.1954,-2.1986,-2.1993,-2.1999,-2.2,-2.2001,-2.1998,-2.1986,-2.1995,-2.1995,-2.1995,-2.1995,-2.1995,0,-2.1425,-2.1457,-2.1494,-2.1548,-2.1579,-2.16,-2.1644,-2.1668,-2.1705,-2.1744,-2.178,-2.1827,-2.1867,-2.1911,-2.1954,-2.1971,-2.1983,-2.198,-2.198,-2.1986,-2.1989,-2.1982,-2.197,-2.197,-2.197,-2.197,-2.197,-2.197,-2.1427,-2.1466,-2.1491,-2.1546,-2.1579,-2.162,-2.1643,-2.1675,-2.1707,-2.1759,-2.1793,-2.1822,-2.1863,-2.1908,-2.1945,-2.1957,-2.1971,-2.1966,-2.198,-2.1983,-2.1985,-2.1987,-2.1981,-2.1968,-2.1968,-2.1974,-2.1974,-2.1974]},{"header":{"parameterUnit":"m.s-1","parameterCategory":1,"la1":30.2991,"la2":30.254,"lo1":-89.0895,"lo2":-89.0444,"dy":0.0017,"dx":0.0017,"nx":28,"ny":28,"refTime":"2025-03-14T03:00:00:Z","depth":0,"parameterNumber":3,"parameterNumberName":"V-component_of_WINDS"},"data":[0,0,0,0,0,0,0,0,0,0,0,0,0,0,0,0,0,0,0,0,0,0,0,0,0,0,0,0,0,0,0,0,0,0,0,0,0,0,0,0,0,0,0,0,0,0,0,0,0,0,0,0,0,0,0,0,0,0,9.6173,9.6175,0,9.6362,9.6364,9.6366,9.639,9.6388,9.6386,9.6384,9.6572,9.6579,9.6586,0,0,0,0,0,0,0,0,0,0,0,0,0,9.5832,9.5838,9.6173,9.6176,9.6178,9.6362,9.6364,9.6367,9.639,9.6388,9.6386,9.6384,9.657,9.6578,9.6586,0,0,0,0,0,0,0,0,0,0,0,0,0,9.5996,9.584,9.6173,9.6212,9.6217,9.6361,9.6364,9.6367,9.639,9.6388,9.6385,9.6382,9.6568,9.6577,9.6587,9.6704,0,0,9.6618,9.6622,0,0,0,0,0,0,0,0,9.5987,9.6009,9.6204,9.6209,9.6216,9.635,9.6313,9.648,9.6391,9.6325,9.6384,9.6381,9.65,9.6516,9.6557,9.6713,9.6721,9.6619,9.6625,9.6629,9.6632,0,0,0,0,0,0,0,9.5975,9.6001,9.6248,9.6207,9.6214,9.622,9.624,9.6345,9.6425,9.633,9.6332,9.6355,9.6503,9.6547,9.6561,9.6723,9.6619,9.6627,9.6634,9.6638,9.699,9.6993,0,0,0,0,0,0,9.5957,9.5991,9.6242,9.6253,9.6092,9.6228,9.6251,9.6309,9.6424,9.6439,9.6357,9.6355,9.6531,9.655,9.6568,9.6716,9.6629,9.6639,9.6644,9.6987,9.6991,9.6994,0,0,0,0,0,0,9.595,9.5979,9.6234,9.6123,9.6156,9.6237,9.6302,9.6314,9.6359,9.6444,9.6458,9.6387,9.653,9.6554,9.6672,9.6723,9.6643,9.6652,9.6983,9.6988,9.6992,9.701,0,0,0,0,0,0,9.594,9.5977,9.6022,9.6124,9.6162,9.6335,9.6305,9.632,9.6377,9.6376,9.6477,9.6491,9.6529,9.6656,9.6681,9.6735,9.666,9.6978,9.6985,9.6991,9.7006,9.7015,9.7024,0,0,0,0,0,9.5928,9.6017,9.6024,9.6054,9.622,9.6338,9.6359,9.6404,9.638,9.6427,9.6483,9.6487,9.6713,9.6668,9.6697,9.6754,9.6975,9.6983,9.699,9.7002,9.7013,9.7024,0,0,0,0,0,0,9.5915,9.6031,9.604,9.6165,9.6242,9.6341,9.6401,9.6414,9.6497,9.6493,9.6543,9.6566,9.6682,9.6729,9.6678,9.6876,9.6842,9.6855,9.6841,9.6853,9.6862,9.6849,9.6668,0,0,0,0,0,9.5928,9.6015,9.611,9.6211,9.625,9.6319,9.6372,9.64,9.6481,9.6513,9.6577,9.6654,9.6743,9.68,9.6886,9.7012,9.7036,9.7066,9.7075,9.7082,9.7094,9.7169,9.7184,9.7019,9.7019,9.7019,0,0,9.5953,9.6027,9.6078,9.6211,9.6274,9.6364,9.6346,9.644,9.6507,9.6526,9.6643,9.6693,9.6783,9.6907,9.6964,9.695,9.7145,9.7092,9.7097,9.7105,9.7178,9.7194,9.7208,9.7024,9.7023,9.7022,0,0,9.6046,9.6109,9.6203,9.6268,9.6365,9.6411,9.6433,9.6533,9.6568,9.6686,9.6704,9.6784,9.6935,9.7,9.7052,9.7175,9.7184,9.7201,9.7249,9.7322,9.7335,9.7347,9.7394,9.741,9.7212,9.7212,9.7213,0,9.6065,9.6201,9.6249,9.6345,9.6404,9.6429,9.6525,9.6585,9.6704,9.6744,9.6727,9.692,9.6982,9.7124,9.7155,9.7195,9.7224,9.7191,9.7329,9.7342,9.7354,9.7399,9.7417,9.7214,9.7214,9.7214,9.7214,0,9.6222,9.6316,9.638,9.6499,9.6565,9.666,9.6723,9.6784,9.6807,9.6856,9.6978,9.7054,9.7158,9.7193,9.7215,9.734,9.7328,9.7319,9.7287,9.737,9.7415,9.7432,9.7217,9.7216,9.7216,9.7215,0,0,9.631,9.6458,9.6481,9.6537,9.6648,9.6722,9.6819,9.6924,9.6977,9.7058,9.7143,9.7273,9.7267,9.7327,9.7356,9.742,9.7518,9.7404,9.7407,9.7425,9.7664,9.7672,9.7691,9.7524,9.7527,9.753,9.7658,0,9.6418,9.6595,9.6643,9.6792,9.6882,9.691,9.6995,9.7072,9.7121,9.7204,9.7257,9.735,9.7333,9.737,9.7434,9.7492,9.7567,9.7483,9.7604,9.7608,9.7583,9.7714,9.7722,9.7838,9.7675,9.7678,9.768,0,9.6567,9.6657,9.6817,9.6921,9.696,9.7036,9.7139,9.7217,9.7307,9.7338,9.7408,9.7433,9.7537,9.7498,9.7643,9.7586,9.7638,9.7674,9.768,9.7695,9.765,9.7735,9.7876,9.7895,9.7707,9.7705,9.7703,0,9.6621,9.678,9.6898,9.6945,9.7068,9.7122,9.7175,9.7262,9.7324,9.7413,9.7454,9.7552,9.7607,9.7683,9.7735,9.7701,9.7877,9.7841,9.7907,9.7906,9.7944,9.7941,9.8099,9.7973,9.7973,9.7972,9.7972,0,9.6738,9.6835,9.6925,9.6997,9.7108,9.7163,9.7271,9.7325,9.7403,9.7487,9.7515,9.7593,9.7656,9.7742,9.7783,9.79,9.7923,9.7952,9.7962,9.7951,9.7948,9.7987,9.7982,9.7977,9.7976,9.7975,9.7974,0,9.6816,9.688,9.701,9.7118,9.7148,9.7225,9.7317,9.7389,9.744,9.7546,9.7574,9.7654,9.7758,9.7818,9.7947,9.7975,9.8106,9.811,9.8076,9.8082,9.8145,9.814,9.8335,9.8365,9.8217,9.8218,9.8219,0,9.6888,9.6964,9.7082,9.7142,9.7197,9.7292,9.7357,9.7414,9.748,9.759,9.765,9.7756,9.7845,9.801,9.8079,9.818,9.8189,9.8251,9.8204,9.8193,9.8194,9.819,9.82,9.8259,9.8261,9.8262,9.8263,0,9.701,9.7039,9.7131,9.7237,9.7314,9.7399,9.7483,9.753,9.7601,9.7674,9.7783,9.7852,9.7988,9.8094,9.8202,9.8256,9.8273,9.8277,9.8298,9.8289,9.8268,9.8284,9.8102,9.8272,9.8271,9.8271,9.827,9.827,9.7089,9.7161,9.7256,9.736,9.743,9.7509,9.7584,9.7646,9.7739,9.7856,9.7883,9.7999,9.809,9.8237,9.8295,9.8386,9.8375,9.8404,9.8412,9.842,9.8424,9.8252,9.8405,9.8405,9.8405,9.8404,9.8404,0,9.7216,9.728,9.7375,9.7494,9.7577,9.7587,9.7682,9.775,9.7852,9.7936,9.8025,9.8152,9.8256,9.8335,9.8443,9.8501,9.8511,9.8527,9.8525,9.8538,9.8426,9.8398,9.8518,9.8518,9.8518,9.8518,9.8518,9.8518,9.7292,9.7414,9.7455,9.7614,9.7677,9.7793,9.7847,9.7921,9.7989,9.8131,9.8219,9.8271,9.8354,9.8469,9.8566,9.8587,9.8626,9.8642,9.8664,9.8557,9.8545,9.8534,9.8509,9.8649,9.8649,9.8769,9.877,9.8771]}]]